When you browse on this site, cookies collect data to enhance your experience and personalize the content and advertising you see.
Visit our Privacy Policy to learn more. By continuing to use the site, you agree to this use of cookies and data.
  • In Österreich
  • Länderverzeichnis
  • Für 7 Tage
  • Wassertemperatur
  • Satellitenkarten
  • Wetterkarte
  • News
  • Widgets
  • user-avatar
    Anmelden

    Stündliche Wetter La Massana

    Heute, 23 Januar, Mittwoch

    Zeit Temperatur Niederschläge Wind Luftdruck Luftfeuchtigkeit
    00:00 -9°C° 0 mm 2 m/S 596 mmHg 85%
    01:00 -7°C° 0.5 mm 1 m/S 596 mmHg 86%
    02:00 -6°C° 0.5 mm 1 m/S 596 mmHg 87%
    03:00 -4°C° 0.5 mm 1 m/S 595 mmHg 88%
    04:00 -4°C° 1.3 mm 1 m/S 595 mmHg 90%
    05:00 -4°C° 1.3 mm 1 m/S 594 mmHg 91%
    06:00 -4°C° 1.3 mm 1 m/S 594 mmHg 93%
    07:00 -4°C° 1.8 mm 1 m/S 594 mmHg 93%
    08:00 -3°C° 1.8 mm 1 m/S 593 mmHg 93%
    09:00 -3°C° 1.8 mm 1 m/S 593 mmHg 93%
    10:00 -5°C° 2.5 mm 2 m/S 593 mmHg 94%
    11:00 -6°C° 2.5 mm 3 m/S 593 mmHg 94%
    12:00 -7°C° 2.5 mm 5 m/S 593 mmHg 94%
    13:00 -8°C° 1.8 mm 4 m/S 593 mmHg 94%
    14:00 -8°C° 1.8 mm 4 m/S 593 mmHg 95%
    15:00 -9°C° 1.8 mm 4 m/S 593 mmHg 95%
    16:00 -10°C° 1.8 mm 5 m/S 593 mmHg 96%
    17:00 -11°C° 1.8 mm 6 m/S 593 mmHg 96%
    18:00 -11°C° 1.8 mm 6 m/S 593 mmHg 96%
    19:00 -12°C° 1.1 mm 7 m/S 593 mmHg 96%
    20:00 -13°C° 1.1 mm 7 m/S 593 mmHg 95%
    21:00 -14°C° 1.1 mm 7 m/S 594 mmHg 95%
    22:00 -14°C° 0.6 mm 7 m/S 594 mmHg 95%
    23:00 -15°C° 0.6 mm 8 m/S 594 mmHg 94%

    Morgen, 24 Januar, Donnerstag

    Zeit Temperatur Niederschläge Wind Luftdruck Luftfeuchtigkeit
    00:00 -16°C° 0.6 mm 8 m/S 594 mmHg 94%
    01:00 -16°C° 0.6 mm 8 m/S 594 mmHg 93%
    02:00 -16°C° 0.6 mm 8 m/S 595 mmHg 93%
    03:00 -16°C° 0.6 mm 8 m/S 595 mmHg 93%
    04:00 -15°C° 0.6 mm 7 m/S 595 mmHg 93%
    05:00 -16°C° 0.6 mm 6 m/S 595 mmHg 93%
    06:00 -15°C° 0.6 mm 5 m/S 596 mmHg 93%
    07:00 -14°C° 0.3 mm 4 m/S 596 mmHg 92%
    08:00 -14°C° 0.3 mm 4 m/S 597 mmHg 92%
    09:00 -14°C° 0.3 mm 4 m/S 597 mmHg 91%
    10:00 -12°C° 0.3 mm 4 m/S 598 mmHg 90%
    11:00 -12°C° 0.3 mm 4 m/S 598 mmHg 88%
    12:00 -12°C° 0.3 mm 5 m/S 599 mmHg 87%
    13:00 -12°C° 0.2 mm 5 m/S 598 mmHg 87%
    14:00 -13°C° 0.2 mm 5 m/S 598 mmHg 88%
    15:00 -13°C° 0.2 mm 5 m/S 598 mmHg 88%
    16:00 -14°C° 0.1 mm 4 m/S 599 mmHg 89%
    17:00 -15°C° 0.1 mm 4 m/S 599 mmHg 90%
    18:00 -15°C° 0.1 mm 4 m/S 599 mmHg 90%
    19:00 -16°C° 0.1 mm 4 m/S 599 mmHg 89%
    20:00 -16°C° 0.1 mm 4 m/S 599 mmHg 89%
    21:00 -16°C° 0.1 mm 4 m/S 600 mmHg 88%
    22:00 -16°C° 0 mm 4 m/S 600 mmHg 87%
    23:00 -16°C° 0 mm 4 m/S 600 mmHg 87%

    übermorgen, 25 Januar, Freitag

    Zeit Temperatur Niederschläge Wind Luftdruck Luftfeuchtigkeit
    00:00 -16°C° 0 mm 4 m/S 600 mmHg 86%
    01:00 -16°C° 0 mm 4 m/S 600 mmHg 84%
    02:00 -15°C° 0 mm 4 m/S 600 mmHg 83%
    03:00 -15°C° 0 mm 4 m/S 601 mmHg 81%
    04:00 -12°C° 0.1 mm 4 m/S 601 mmHg 83%
    05:00 -11°C° 0.1 mm 4 m/S 602 mmHg 85%
    06:00 -9°C° 0.1 mm 4 m/S 602 mmHg 88%
    07:00 -8°C° 0.4 mm 5 m/S 603 mmHg 89%
    08:00 -6°C° 0.4 mm 5 m/S 604 mmHg 90%
    09:00 -5°C° 0.4 mm 5 m/S 604 mmHg 91%
    10:00 -5°C° 0.9 mm 5 m/S 604 mmHg 91%
    11:00 -4°C° 0.9 mm 6 m/S 604 mmHg 92%
    12:00 -4°C° 0.9 mm 6 m/S 604 mmHg 92%
    13:00 -4°C° 0.8 mm 6 m/S 604 mmHg 92%
    14:00 -4°C° 0.8 mm 6 m/S 604 mmHg 91%
    15:00 -4°C° 0.8 mm 6 m/S 604 mmHg 91%
    16:00 -4°C° 0.5 mm 6 m/S 604 mmHg 91%
    17:00 -4°C° 0.5 mm 7 m/S 604 mmHg 90%
    18:00 -4°C° 0.5 mm 7 m/S 605 mmHg 90%
    19:00 -6°C° 0.4 mm 7 m/S 605 mmHg 90%
    20:00 -6°C° 0.4 mm 7 m/S 606 mmHg 90%
    21:00 -6°C° 0.4 mm 7 m/S 606 mmHg 90%
    22:00 -6°C° 0 mm 7 m/S 606 mmHg 90%
    23:00 -6°C° 0 mm 6 m/S 606 mmHg 90%

    26 Januar, Samstag

    Zeit Temperatur Niederschläge Wind Luftdruck Luftfeuchtigkeit
    00:00 -6°C° 0 mm 6 m/S 607 mmHg 90%
    01:00 -6°C° 0 mm 5 m/S 607 mmHg 90%
    02:00 -6°C° 0 mm 5 m/S 606 mmHg 90%
    03:00 -7°C° 0 mm 5 m/S 606 mmHg 90%
    04:00 -7°C° 0 mm 4 m/S 606 mmHg 91%
    05:00 -7°C° 0 mm 4 m/S 607 mmHg 92%
    06:00 -7°C° 0 mm 4 m/S 607 mmHg 92%
    07:00 -6°C° 0 mm 3 m/S 607 mmHg 93%
    08:00 -5°C° 0 mm 3 m/S 607 mmHg 93%
    09:00 -5°C° 0 mm 3 m/S 608 mmHg 93%
    10:00 -4°C° 0 mm 3 m/S 608 mmHg 94%
    11:00 -2°C° 0 mm 3 m/S 608 mmHg 95%
    12:00 -1°C° 0 mm 3 m/S 608 mmHg 96%
    13:00 -1°C° 0 mm 3 m/S 608 mmHg 95%
    14:00 -1°C° 0 mm 2 m/S 607 mmHg 94%
    15:00 -1°C° 0 mm 2 m/S 607 mmHg 94%
    16:00 -3°C° 0 mm 2 m/S 606 mmHg 93%
    17:00 -5°C° 0 mm 2 m/S 605 mmHg 92%
    18:00 -7°C° 0 mm 2 m/S 604 mmHg 91%
    19:00 -7°C° 0 mm 2 m/S 604 mmHg 90%
    20:00 -8°C° 0 mm 2 m/S 604 mmHg 90%
    21:00 -8°C° 0 mm 2 m/S 604 mmHg 89%
    22:00 -8°C° 0 mm 2 m/S 603 mmHg 89%
    23:00 -8°C° 0 mm 2 m/S 603 mmHg 88%

    27 Januar, Sonntag

    Zeit Temperatur Niederschläge Wind Luftdruck Luftfeuchtigkeit
    00:00 -8°C° 0 mm 2 m/S 603 mmHg 88%
    01:00 -7°C° 0 mm 2 m/S 603 mmHg 88%
    02:00 -6°C° 0 mm 2 m/S 603 mmHg 88%
    03:00 -5°C° 0 mm 2 m/S 602 mmHg 88%
    04:00 -4°C° 0.4 mm 2 m/S 603 mmHg 90%
    05:00 -3°C° 0.4 mm 2 m/S 603 mmHg 92%
    06:00 -2°C° 0.4 mm 3 m/S 603 mmHg 93%
    07:00 -4°C° 0.4 mm 3 m/S 603 mmHg 93%
    08:00 -4°C° 0.4 mm 4 m/S 603 mmHg 92%
    09:00 -6°C° 0.4 mm 5 m/S 603 mmHg 92%
    10:00 -7°C° 0.1 mm 5 m/S 603 mmHg 89%
    11:00 -7°C° 0.1 mm 5 m/S 603 mmHg 87%
    12:00 -8°C° 0.1 mm 4 m/S 602 mmHg 85%
    13:00 -8°C° 0 mm 4 m/S 602 mmHg 85%
    14:00 -9°C° 0 mm 4 m/S 601 mmHg 85%
    15:00 -10°C° 0 mm 5 m/S 601 mmHg 84%
    16:00 -10°C° 0 mm 4 m/S 601 mmHg 86%
    17:00 -11°C° 0 mm 4 m/S 601 mmHg 89%
    18:00 -12°C° 0 mm 4 m/S 600 mmHg 91%
    19:00 -13°C° 0.1 mm 5 m/S 600 mmHg 91%
    20:00 -14°C° 0.1 mm 5 m/S 600 mmHg 91%
    21:00 -14°C° 0.1 mm 5 m/S 601 mmHg 91%
    22:00 -13°C° 0.3 mm 5 m/S 601 mmHg 91%
    23:00 -12°C° 0.3 mm 4 m/S 600 mmHg 92%

    28 Januar, Montag

    Zeit Temperatur Niederschläge Wind Luftdruck Luftfeuchtigkeit
    00:00 -12°C° 0.3 mm 4 m/S 600 mmHg 93%
    01:00 -12°C° 0.4 mm 4 m/S 600 mmHg 92%
    02:00 -12°C° 0.4 mm 4 m/S 600 mmHg 92%
    03:00 -12°C° 0.4 mm 4 m/S 600 mmHg 92%
    04:00 -14°C° 0.3 mm 4 m/S 600 mmHg 92%
    05:00 -14°C° 0.3 mm 4 m/S 600 mmHg 92%
    06:00 -14°C° 0.3 mm 4 m/S 599 mmHg 91%
    07:00 -14°C° 0.4 mm 5 m/S 600 mmHg 90%
    08:00 -13°C° 0.4 mm 5 m/S 600 mmHg 89%
    09:00 -14°C° 0.4 mm 6 m/S 600 mmHg 88%
    10:00 -14°C° 0.4 mm 6 m/S 600 mmHg 87%
    11:00 -13°C° 0.4 mm 7 m/S 600 mmHg 87%
    12:00 -13°C° 0.4 mm 7 m/S 600 mmHg 86%
    13:00 -13°C° 0.5 mm 7 m/S 600 mmHg 87%
    14:00 -13°C° 0.5 mm 7 m/S 600 mmHg 87%
    15:00 -14°C° 0.5 mm 7 m/S 600 mmHg 88%
    16:00 -13°C° 1.1 mm 7 m/S 600 mmHg 89%
    17:00 -12°C° 1.1 mm 6 m/S 600 mmHg 91%
    18:00 -12°C° 1.1 mm 6 m/S 600 mmHg 92%
    19:00 -14°C° 0.6 mm 6 m/S 601 mmHg 92%
    20:00 -14°C° 0.6 mm 6 m/S 601 mmHg 92%
    21:00 -14°C° 0.6 mm 5 m/S 601 mmHg 92%
    22:00 -14°C° 0.2 mm 5 m/S 601 mmHg 91%
    23:00 -15°C° 0.2 mm 5 m/S 601 mmHg 90%
    Mehr zeigen